Lufkin, TX

2:09 PM CDT on March 24, 2017 (GMT -0500)
Angelina County

Weather History for KLFK - January, 2012

Change the Weather History Date:

Saturday, January 21, 2012

  Actual Average Record
Temperature  
Mean Temperature 61 °F 49 °F  
Max Temperature 68 °F 60 °F 84 °F (1911)
Min Temperature 53 °F 38 °F 13 °F (1985)
Degree Days  
Heating Degree Days 4 16  
Month to date heating degree days 231 348  
Since 1 July heating degree days 969 1126  
Cooling Degree Days 0 0  
Month to date cooling degree days 7 0  
Year to date cooling degree days 7 0  
Growing Degree Days 11 (Base 50)    
Moisture  
Dew Point 56 °F    
Average Humidity 78    
Maximum Humidity 100    
Minimum Humidity 55    
Precipitation  
Precipitation 0.00 in 0.14 in 2.07 in (1949)
Month to date precipitation 2.88 2.77  
Year to date precipitation 2.88 2.77  
Snow  
Snow 0.00 in - - ()
Month to date snowfall 0.0  
Since 1 July snowfall 0.0  
Snow Depth 0.00 in    
Sea Level Pressure  
Sea Level Pressure 29.91 in    
Wind  
Wind Speed 3 mph (NNW)    
Max Wind Speed 10 mph    
Max Gust Speed 16 mph    
Visibility 5 miles    
Events Fog    
T = Trace of Precipitation, MM = Missing Value Source: NWS Daily Summary

Daily Weather History Graph

Daily Weather History Graph

Search for Another Location

Airport or City:

Trip Planner

Search our weather history database for the weather conditions in past years. The results will help you decide how hot, cold, wet, or windy it might be!

Date:

Astronomy

Jan. 21, 2012 Rise Set
Actual Time 7:16 AM CST 5:43 PM CST
Civil Twilight 6:50 AM CST 6:09 PM CST
Nautical Twilight 6:21 AM CST 6:39 PM CST
Astronomical Twilight 5:52 AM CST 7:08 PM CST
Moon 5:45 AM CST (1/21) 4:22 PM CST (1/21)
Length of Visible Light 11h 19m
Length of Day
10h 27m
Waning Crescent, 3% of the Moon is Illuminated
Jan 21
Waning Crescent
Jan 23
New
Jan 30
First Quarter
Feb 7
Full
Feb 14
Last Quarter

Hourly Weather History & Observations

Time (CST) Temp. Dew Point Humidity Pressure Visibility Wind Dir Wind Speed Gust Speed Precip Events Conditions
12:53 AM 68.0 °F 64.4 °F 88% 29.86 in 10.0 mi Calm Calm - N/A   Overcast
1:32 AM 64.4 °F 62.6 °F 94% 29.86 in 7.0 mi Calm Calm - N/A   Scattered Clouds
1:41 AM 64.4 °F 62.6 °F 94% 29.87 in 5.0 mi Calm Calm - N/A   Mostly Cloudy
1:53 AM 64.4 °F 62.6 °F 94% 29.87 in 5.0 mi Calm Calm - N/A   Overcast
2:24 AM 64.4 °F 62.6 °F 94% 29.87 in 1.5 mi Calm Calm - N/A   Overcast
2:34 AM 64.4 °F 62.6 °F 94% 29.87 in 0.5 mi East 3.5 mph - N/A Fog Fog
2:49 AM 64.4 °F 62.6 °F 94% 29.88 in 2.0 mi Calm Calm - N/A   Overcast
2:53 AM 64.0 °F 62.1 °F 93% 29.87 in 3.0 mi Calm Calm - N/A   Overcast
3:03 AM 64.4 °F 62.6 °F 94% 29.88 in 3.0 mi Calm Calm - N/A   Overcast
3:10 AM 64.4 °F 60.8 °F 88% 29.88 in 1.8 mi Calm Calm - N/A   Overcast
3:24 AM 64.4 °F 62.6 °F 94% 29.88 in 0.5 mi SE 3.5 mph - N/A Fog Fog
3:44 AM 64.4 °F 60.8 °F 88% 29.88 in 0.2 mi Calm Calm - N/A Fog Fog
3:53 AM 63.0 °F 61.0 °F 93% 29.87 in 0.2 mi Calm Calm - N/A Fog Fog
4:03 AM 62.6 °F 60.8 °F 94% 29.88 in 0.5 mi Calm Calm - N/A Fog Fog
4:15 AM 62.6 °F 60.8 °F 94% 29.88 in 1.0 mi Calm Calm - N/A   Overcast
4:22 AM 62.6 °F 60.8 °F 94% 29.88 in 0.5 mi ESE 3.5 mph - N/A Fog Fog
4:53 AM 64.0 °F 62.1 °F 93% 29.87 in 0.5 mi Calm Calm - N/A Fog Fog
5:05 AM 62.6 °F 62.6 °F 100% 29.88 in 0.2 mi Calm Calm - N/A Fog Fog
5:25 AM 62.6 °F 60.8 °F 94% 29.88 in 0.5 mi Calm Calm - N/A Fog Fog
5:35 AM 64.4 °F 60.8 °F 88% 29.89 in 0.2 mi Calm Calm - N/A Fog Fog
5:42 AM 62.6 °F 62.6 °F 100% 29.89 in 0.5 mi Calm Calm - N/A Fog Fog
5:53 AM 63.0 °F 62.1 °F 97% 29.89 in 0.8 mi Calm Calm - N/A   Mostly Cloudy
6:07 AM 62.6 °F 59.0 °F 88% 29.90 in 0.2 mi Calm Calm - N/A Fog Fog
6:34 AM 60.8 °F 57.2 °F 88% 29.91 in 0.2 mi Calm Calm - N/A Fog Fog
6:49 AM 60.8 °F 57.2 °F 88% 29.91 in 0.5 mi Calm Calm - N/A Fog Fog
6:53 AM 60.8 °F 57.2 °F 88% 29.91 in 0.2 mi ESE 3.5 mph - N/A Fog Fog
7:04 AM 60.8 °F 59.0 °F 94% 29.92 in 0.2 mi Calm Calm - N/A Fog Fog
7:53 AM 62.1 °F 60.1 °F 93% 29.92 in 0.2 mi Calm Calm - N/A Fog Fog
8:02 AM 62.6 °F 60.8 °F 94% 29.93 in 0.2 mi Calm Calm - N/A Fog Fog
8:31 AM 64.4 °F 60.8 °F 88% 29.95 in 1.2 mi NW 8.1 mph - N/A   Overcast
8:33 AM 62.6 °F 60.8 °F 94% 29.96 in 4.0 mi NW 9.2 mph - N/A   Overcast
8:53 AM 59.0 °F 55.9 °F 90% 29.95 in 10.0 mi NNW 6.9 mph - N/A   Overcast
9:18 AM 60.8 °F 53.6 °F 77% 29.97 in 10.0 mi NNW 8.1 mph - N/A   Overcast
9:22 AM 62.6 °F 53.6 °F 72% 29.97 in 10.0 mi NNW 8.1 mph - N/A   Overcast
9:53 AM 60.1 °F 48.9 °F 67% 29.98 in 10.0 mi NNW 6.9 mph - N/A   Overcast
10:53 AM 59.0 °F 46.0 °F 62% 29.99 in 10.0 mi NNW 6.9 mph - N/A   Overcast
11:53 AM 59.0 °F 45.0 °F 60% 29.98 in 10.0 mi NW 9.2 mph - N/A   Overcast
12:53 PM 61.0 °F 45.0 °F 56% 29.96 in 10.0 mi NW 5.8 mph - N/A   Overcast
1:53 PM 63.0 °F 46.0 °F 54% 29.94 in 10.0 mi North 5.8 mph - N/A   Overcast
2:31 PM 64.4 °F 46.4 °F 52% 29.94 in 10.0 mi NW 6.9 mph - N/A   Mostly Cloudy
2:53 PM 63.0 °F 46.9 °F 56% 29.94 in 10.0 mi NW 4.6 mph - N/A   Mostly Cloudy
3:53 PM 61.0 °F 46.0 °F 58% 29.94 in 10.0 mi NW 6.9 mph - N/A   Mostly Cloudy
4:53 PM 60.1 °F 46.0 °F 60% 29.94 in 10.0 mi Variable 4.6 mph - N/A   Clear
5:53 PM 57.0 °F 46.0 °F 67% 29.92 in 10.0 mi NW 3.5 mph - N/A   Clear
6:53 PM 55.0 °F 46.0 °F 72% 29.92 in 10.0 mi NNW 3.5 mph - N/A   Clear
7:53 PM 54.0 °F 46.0 °F 75% 29.93 in 10.0 mi Calm Calm - N/A   Mostly Cloudy
8:53 PM 55.0 °F 46.9 °F 74% 29.94 in 9.0 mi Calm Calm - N/A   Overcast
9:53 PM 54.0 °F 46.9 °F 77% 29.92 in 9.0 mi Calm Calm - N/A   Mostly Cloudy
10:53 PM 54.0 °F 46.9 °F 77% 29.91 in 9.0 mi Calm Calm - N/A   Overcast
11:53 PM 54.0 °F 48.0 °F 80% 29.89 in 9.0 mi Calm Calm - N/A   Overcast